CAPE
14 44 154 42 74 11 24 78 99 56 74 3 8 119 131 174 69 0 1 0 0 113 661 669 746 891 207 110 238 934 682 708 1530 1395 1605 1448 1371 1392 1284 1444 1399 1464 1076 993 1032 1117 1023 1099 935
0 0 122 30 31 18 46 91 77 74 57 46 96 118 186 219 121 8 7 80 11 430 914 717 825 958 989 1149 1000 1640 1594 1635 1617 1673 1478 1382 1477 1355 1390 1464 1548 1623 1636 1394 1437 1134 1254 1278 1296
55 20 1 18 41 26 15 34 92 114 103 131 110 208 340 167 141 109 170 93 116 564 730 1110 1350 1271 799 1329 1492 1640 1446 1716 1646 1594 1630 1468 1279 1516 1613 1363 1496 1601 1558 1446 1254 1193 1202 1147 1116
53 202 106 55 58 75 59 57 110 107 111 119 78 93 194 492 354 395 150 133 299 681 836 1252 1422 874 1563 322 1656 1790 1742 1697 1676 1593 1643 1547 1352 1459 1745 1906 1812 1949 1892 1739 1409 1400 1207 1196 1120
92 49 49 64 67 70 66 81 78 102 113 81 37 58 240 476 475 393 189 166 337 829 1283 1236 1520 1708 1733 1845 1833 1749 1777 1704 1694 1720 1733 1716 1835 1828 1909 1880 1843 1968 2066 1655 1491 1474 1022 851 995
8 45 27 22 56 43 73 141 87 154 212 142 60 107 310 414 461 469 442 409 657 1120 1316 1417 1620 1715 1745 1751 1600 1770 1672 1584 1556 1757 1669 1625 1850 1938 1837 1815 1892 1939 1700 1495 1410 1244 579 864 886
0 11 25 12 21 22 68 220 117 203 189 170 207 140 191 375 489 590 646 694 1032 1404 1041 1057 1501 1590 1813 1798 1740 1706 1349 1211 1477 1694 1690 1564 1954 1758 1893 1950 2030 1823 1514 1292 1262 999 791 642 577
0 13 6 1 4 1 0 104 182 166 191 218 226 102 101 111 391 703 828 859 1132 1139 857 1043 1509 1536 1449 1596 1589 1686 1790 1541 1672 1059 1608 1910 2094 1907 1794 1445 915 915 1060 1034 818 549 444 457 293
7 0 3 2 0 1 4 129 135 112 109 58 115 145 158 68 390 594 307 610 786 975 976 1198 1328 1201 1245 1206 1604 1639 1743 1730 1376 1753 1351 1804 1598 1736 1726 1650 1597 1490 1125 611 208 71 59 173 284
0 0 0 1 0 2 43 48 119 71 56 10 94 186 91 129 410 187 245 157 349 339 753 1013 976 1031 1379 1559 1546 1436 1516 1588 1158 1379 1515 1235 1016 1089 1101 1778 1830 1628 1631 1379 1037 360 94 45 10
8 1 0 0 10 19 5 37 9 100 20 27 56 92 31 135 248 227 168 142 135 158 696 928 870 1144 1046 1142 1319 1171 1294 1019 938 990 1105 825 857 861 853 796 824 882 1222 858 669 412 334 247 232
35 98 60 0 52 11 7 15 13 163 24 6 85 64 31 171 259 193 89 46 55 282 429 571 704 637 618 794 799 771 638 476 419 661 848 852 713 642 321 256 390 313 296 452 482 551 611 674 672
0 197 54 11 28 5 3 19 34 139 38 83 176 220 217 187 264 205 143 7 86 199 329 526 533 338 276 308 557 676 708 774 741 651 651 660 636 460 137 74 99 284 444 464 529 630 668 646 618
0 302 123 61 48 4 2 15 118 100 109 102 116 127 133 110 202 251 227 122 186 140 277 487 457 308 304 295 480 633 764 694 469 599 761 742 660 402 541 413 282 390 574 554 571 678 521 363 117
244 129 247 190 52 10 50 11 44 81 96 71 70 35 43 57 135 203 209 151 171 225 208 464 414 415 301 449 593 625 720 630 391 451 968 703 334 963 708 681 440 658 1030 834 698 485 682 624 147
124 206 41 123 157 213 53 22 60 34 108 102 36 1 44 57 112 174 185 154 128 137 47 307 421 423 432 382 342 460 601 603 242 498 910 584 598 1070 711 683 840 1033 840 812 743 728 653 219 25
216 35 23 99 116 111 54 50 32 33 105 91 47 20 30 18 60 165 179 112 57 18 11 161 123 207 261 258 226 271 516 505 299 646 897 702 1159 808 443 516 802 462 418 436 558 764 726 247 61
45 39 29 46 23 6 17 78 18 36 85 49 53 49 53 35 95 199 184 54 22 1 0 103 39 310 95 35 74 60 288 362 586 662 455 1019 1055 726 324 274 371 202 227 418 670 1124 580 283 148
42 0 23 19 48 23 10 66 25 11 55 35 39 49 68 35 134 193 258 310 145 7 16 140 45 73 150 68 2 91 230 408 538 530 811 1049 907 663 475 42 49 6 252 361 691 1337 938 552 504
0 0 45 117 176 112 208 139 141 30 4 55 47 66 85 65 85 210 281 313 229 57 58 27 68 113 45 6 99 175 259 697 483 398 765 791 640 192 131 196 0 0 142 328 752 694 872 625 582
0 0 12 103 65 170 228 169 306 141 0 6 23 76 61 67 99 125 243 238 248 190 79 51 77 89 17 29 356 349 470 727 536 410 514 260 732 403 955 450 0 0 232 398 643 232 334 685 1053
0 7 111 0 29 7 232 15 49 254 74 0 33 38 35 47 72 132 165 225 216 179 73 235 96 4 168 305 479 406 377 623 515 428 513 308 36 1164 913 534 268 0 61 487 709 0 161 543 827
0 170 13 16 47 2 3 23 21 226 92 43 2 40 51 59 14 103 167 191 216 174 162 187 166 95 150 496 333 400 225 577 502 548 590 430 255 1021 1162 755 401 8 0 62 637 774 378 440 472
35 83 24 4 49 39 2 11 0 149 40 84 33 0 55 117 115 86 108 166 179 189 210 230 202 134 162 447 270 311 314 263 343 339 563 519 384 601 1010 872 507 218 0 0 0 653 973 429 0
1 20 20 30 30 3 15 9 22 4 40 58 157 79 1 82 148 111 103 171 171 173 211 188 178 177 200 343 274 312 309 338 491 396 429 495 383 496 705 813 686 535 332 334 211 847 952 856 960
0 0 0 0 0 2 1 0 76 0 41 77 85 110 21 0 97 128 122 135 205 187 242 235 186 183 262 313 219 292 382 362 451 374 303 282 551 447 557 517 791 730 736 771 738 868 824 1081 1112
0 0 0 0 0 0 0 55 43 0 8 35 58 79 56 13 5 72 108 100 237 264 268 272 229 199 191 241 260 282 403 377 442 520 550 424 405 456 498 348 792 794 903 877 680 598 829 797 874
0 0 0 0 0 0 0 21 0 88 0 1 12 9 79 52 23 6 69 30 76 280 379 363 306 241 206 224 248 323 380 514 505 450 497 558 459 474 548 512 519 587 798 864 883 753 483 466 607
0 0 0 0 0 0 0 0 108 17 0 0 0 0 0 33 34 24 7 38 27 169 363 460 430 317 225 156 218 243 365 504 438 341 355 505 570 576 571 645 654 524 567 715 722 813 834 804 633
0 0 0 0 0 0 0 0 10 0 0 0 0 0 10 58 91 196 61 49 47 87 243 392 481 365 172 62 66 197 265 337 431 306 319 347 510 519 518 653 532 620 702 556 684 794 816 726 791
CIN
-282 -237 -212 -278 -55 -56 -23 -24 -53 -78 -89 -28 -96 -89 -89 -103 -70 0 -25 -2 0 -38 -3 -1 0 -2 -21 -27 -29 -4 -14 -19 0 -1 0 0 0 0 0 0 0 0 0 -1 -1 0 -2 -1 -11
0 0 -209 -207 -32 -25 -10 -35 -48 -107 -134 -139 -108 -96 -83 -97 -163 -138 -114 -123 -72 -29 -2 -4 -4 -2 -3 -1 -1 0 0 0 0 -2 0 -1 0 0 0 -2 0 0 0 0 0 0 0 -1 -2
-267 -211 -42 -108 -32 -16 -21 -35 -72 -116 -143 -84 -110 -90 -85 -121 -173 -171 -127 -131 -84 -22 -9 -1 0 -2 -7 0 -1 0 -1 0 0 -2 0 0 -1 0 0 0 -2 -1 0 0 0 -1 -5 -10 -6
-232 -176 -180 -63 -18 -31 -30 -57 -77 -118 -103 -101 -95 -94 -73 -61 -120 -125 -149 -115 -61 -24 -13 -1 0 -7 -1 -21 0 0 0 0 0 0 -2 0 -1 0 0 0 0 0 0 0 0 -3 -12 -9 -11
-230 -189 -63 -52 -26 -12 -45 -10 -30 -78 -86 -88 -81 -80 -50 -30 -98 -133 -146 -124 -66 -13 -2 -8 0 0 0 0 -1 0 0 0 0 0 0 0 0 0 0 0 -1 0 0 -1 -10 -12 -14 -21 -16
-136 -148 -57 -45 -38 -58 -23 -28 -23 -63 -73 -92 -95 -81 -31 -53 -73 -93 -94 -76 -35 -4 -2 -2 0 0 0 0 -5 0 0 0 0 0 0 -1 0 0 0 0 -3 0 -1 -2 -12 -22 -27 -21 -27
-25 -72 -71 -63 -18 -57 -50 -15 -24 -58 -82 -62 -80 -107 -87 -39 -46 -58 -39 -43 -17 -1 -7 -2 -1 0 0 0 0 0 -2 -6 -3 0 0 0 0 0 0 0 0 0 -1 -12 -21 -29 -28 -55 -59
0 -116 -63 -70 -46 -41 0 -17 -16 -46 -65 -76 -68 -81 -116 -131 -58 -20 -13 -21 -5 -3 -18 -10 -2 -2 -3 -1 0 0 0 0 -1 -9 -1 0 0 0 0 -1 -25 -32 -25 -31 -46 -46 -56 -76 -95
-53 -9 -52 -38 0 -57 -85 -12 -19 -36 -51 -40 -55 -91 -133 -166 -55 -16 -69 -25 -23 -13 -15 -5 -5 -12 -11 -9 -1 -1 0 -1 -5 -1 -4 -9 -3 -3 -4 -7 -9 -18 -31 -56 -80 -90 -120 -106 -74
0 0 0 -40 0 -102 -36 -36 -48 -52 -37 -23 -74 -92 -155 -147 -77 -105 -97 -109 -82 -100 -42 -30 -36 -18 -4 -2 -2 -3 -2 -3 -12 -15 -17 -22 -28 -30 -36 -10 -4 -18 -22 -40 -52 -73 -100 -69 -193
-148 -52 0 0 -66 -68 -72 -53 -156 -46 -70 -69 -85 -126 -169 -125 -95 -97 -108 -124 -139 -134 -59 -33 -36 -19 -16 -14 -6 -12 -9 -23 -31 -33 -32 -42 -42 -58 -61 -70 -68 -67 -57 -68 -70 -77 -76 -74 -99
-78 -93 -101 0 -88 -81 -55 -99 -130 -54 -69 -23 -82 -147 -157 -110 -107 -105 -131 -157 -172 -112 -102 -82 -51 -62 -54 -38 -39 -36 -39 -52 -64 -43 -49 -54 -66 -74 -103 -100 -97 -93 -86 -66 -75 -73 -78 -78 -90
-15 -93 -101 -126 -85 -11 -68 -66 -94 -28 -39 -54 -80 -103 -106 -115 -98 -105 -121 -79 -175 -136 -116 -83 -83 -98 -104 -80 -53 -44 -34 -34 -38 -54 -64 -76 -74 -75 -128 -127 -129 -117 -116 -112 -100 -100 -86 -84 -90
0 -81 -88 -120 -107 -108 -86 -93 -41 -15 -9 -41 -78 -89 -105 -126 -124 -100 -119 -142 -154 -157 -127 -95 -97 -106 -104 -80 -55 -45 -40 -44 -68 -63 -57 -67 -76 -83 -79 -79 -96 -99 -104 -100 -95 -87 -81 -101 -158
-93 -37 -50 -43 -60 -123 -102 -33 -32 -49 -15 -65 -76 -91 -101 -88 -109 -111 -130 -140 -148 -142 -140 -93 -97 -99 -95 -72 -53 -54 -43 -48 -63 -67 -55 -66 -97 -60 -71 -76 -78 -94 -90 -84 -76 -65 -70 -72 -136
-57 -50 -29 -70 -71 -45 -73 -15 -61 -87 -31 -2 -48 -48 -75 -96 -97 -118 -130 -125 -158 -149 -159 -94 -74 -80 -80 -89 -90 -63 -52 -47 -84 -63 -53 -75 -74 -63 -78 -75 -77 -93 -76 -71 -61 -66 -76 -120 -184
-35 -24 -43 -50 -82 -82 -73 -48 -59 -65 -22 -28 -51 -84 -76 -76 -104 -111 -134 -156 -145 -162 -159 -116 -127 -99 -99 -106 -94 -78 -59 -58 -71 -51 -52 -64 -51 -79 -74 -86 -83 -111 -102 -105 -87 -79 -70 -100 -143
-43 -30 -55 -47 -112 -66 -36 -34 -147 -82 -57 -32 -62 -70 -59 -79 -91 -114 -132 -157 -147 -71 0 -115 -120 -83 -106 -140 -117 -122 -90 -80 -69 -50 -66 -52 -54 -66 -88 -103 -114 -129 -145 -106 -73 -61 -92 -104 -92
-20 -6 -32 -75 -135 -133 -87 -39 -109 -88 -66 -76 -62 -50 -73 -90 -104 -111 -105 -113 -113 -62 -93 -105 -121 -116 -104 -97 -33 -77 -51 -43 -54 -58 -51 -51 -64 -75 -69 -121 -128 -222 -116 -97 -72 -71 -62 -48 -80
0 0 -42 -79 -117 -103 -62 -44 -31 -55 -32 -72 -72 -55 -57 -85 -103 -105 -97 -93 -109 -125 -109 -129 -122 -104 -85 -70 -69 -67 -67 -63 -43 -60 -58 -62 -65 -88 -82 -103 0 0 -131 -108 -83 -66 -59 -77 -117
0 0 -14 -18 -83 -90 -63 -45 -45 -80 0 -66 -84 -79 -82 -75 -96 -98 -113 -97 -108 -117 -111 -126 -122 -93 -54 -85 -61 -59 -58 -61 -43 -68 -53 -76 -66 -80 -54 -86 0 0 -148 -105 -106 -107 -77 -36 -89
0 -46 -42 0 -36 -40 -74 -41 -70 -97 -100 0 -78 -86 -80 -91 -99 -94 -103 -136 -116 -109 -127 -90 -103 -55 -85 -63 -43 -43 -35 -24 -36 -32 -48 -65 -52 -45 -52 -67 -96 0 -190 -101 -92 0 -109 -70 -40
0 -45 -24 -28 -41 -47 -15 -40 -63 -142 -105 -118 -145 -81 -70 -69 -100 -96 -113 -138 -128 -113 -106 -94 -83 -89 -97 -63 -51 -41 -41 -26 -34 -38 -33 -49 -82 -37 -38 -71 -89 -41 0 -166 -97 -89 -108 -99 -75
-30 -38 -53 -83 -50 -18 -36 -39 0 -109 -179 -156 -157 0 -118 -110 -81 -87 -127 -125 -135 -120 -109 -94 -98 -89 -87 -61 -55 -46 -37 -32 -31 -35 -31 -33 -52 -47 -38 -59 -71 -91 0 0 0 -93 -83 -99 0
-15 -25 -8 -8 -13 -4 -72 -36 -85 -103 -257 -249 -182 -206 -130 -98 -73 -98 -110 -127 -143 -141 -120 -99 -100 -97 -81 -52 -63 -52 -50 -45 -36 -33 -26 -31 -47 -50 -50 -44 -47 -59 -72 -78 -53 -76 -66 -72 -66
0 0 0 0 -2 -15 -43 0 -100 0 -289 -262 -251 -236 -263 0 -67 -61 -93 -119 -126 -137 -130 -116 -107 -96 -88 -69 -98 -76 -53 -57 -52 -40 -31 -37 -41 -46 -52 -45 -39 -43 -56 -49 -65 -65 -73 -59 -53
0 0 0 0 0 0 0 -113 -216 -31 -124 -275 -246 -232 -277 -290 -224 -57 -75 -118 -106 -114 -133 -139 -115 -111 -112 -105 -87 -92 -72 -61 -42 -38 -45 -45 -53 -53 -41 -47 -33 -38 -44 -47 -68 -71 -55 -59 -53
0 0 0 0 0 0 0 -45 0 -124 0 -178 -296 -264 -210 -263 -259 -36 -140 -112 -110 -97 -107 -131 -120 -110 -129 -113 -106 -86 -73 -61 -52 -48 -32 -48 -51 -47 -43 -45 -49 -50 -43 -42 -45 -47 -62 -58 -50
0 0 0 0 0 0 0 0 -157 -185 -45 0 0 0 0 -284 -269 -191 -164 -165 -107 -101 -95 -114 -125 -119 -132 -136 -120 -106 -64 -53 -56 -61 -46 -45 -47 -46 -45 -46 -53 -63 -50 -41 -36 -31 -28 -22 -28
0 0 0 0 0 0 0 0 -251 0 0 0 0 0 -287 -212 -187 -169 -206 -235 -148 -112 -160 -122 -120 -132 -149 -140 -132 -103 -73 -56 -52 -63 -65 -63 -42 -40 -47 -47 -51 -54 -51 -42 -31 -28 -29 -24 -21
Wind_Speed
16 15 12 14 18 20 23 21 21 22 20 19 20 19 18 12 12 12 23 24 23 24 23 26 6 4 5 4 5 6 4 3 4 3 3 3 2 6 10 7 7 4 5 8 6 4 8 6 10
13 13 12 13 20 22 23 21 22 21 21 24 22 19 13 11 11 17 21 25 23 23 27 27 27 26 7 5 2 3 3 3 2 1 4 6 2 6 7 5 6 3 3 6 1 9 3 8 3
13 12 11 11 2 18 22 22 22 24 24 21 20 6 9 14 19 23 23 24 21 21 29 28 28 28 28 28 3 3 2 3 5 4 7 4 6 1 9 17 5 7 7 7 5 4 3 4 12
14 13 13 11 11 10 17 22 24 25 23 21 25 18 14 20 23 24 24 23 21 24 28 29 29 30 30 2 4 2 2 11 8 10 6 4 5 5 7 3 14 9 11 4 6 12 9 1 8
14 14 14 12 10 9 9 18 21 23 23 22 24 24 25 24 17 23 26 24 23 25 29 30 30 30 30 30 17 8 16 23 18 9 13 18 17 4 3 4 3 9 8 9 13 16 11 9 10
16 15 14 15 14 16 15 17 19 20 22 22 24 24 22 22 22 25 25 22 24 24 28 29 29 29 29 28 25 27 26 25 19 16 8 7 9 5 9 9 11 11 11 14 18 17 12 9 10
16 15 9 11 17 20 14 16 20 15 22 22 25 21 25 23 22 26 21 23 26 25 24 27 30 29 28 28 27 25 24 23 22 15 12 11 12 6 11 11 11 12 15 17 17 16 14 11 10
23 11 11 8 6 23 20 10 18 16 18 20 24 20 24 27 22 21 23 24 26 24 25 23 29 29 28 27 25 21 21 20 19 20 19 10 5 8 11 11 9 13 16 13 15 15 13 13 13
18 17 14 9 14 20 20 20 16 15 18 20 18 20 27 29 25 23 24 23 25 24 24 23 12 20 20 20 22 21 20 20 21 21 20 5 7 8 9 12 11 14 12 11 13 15 15 15 12
18 16 15 19 16 15 20 17 21 18 23 18 17 22 28 29 27 26 24 26 24 23 24 25 22 13 22 19 15 17 19 21 20 20 16 16 10 10 11 12 8 7 10 11 14 14 15 13 13
16 17 16 17 17 10 5 19 20 22 24 21 25 27 27 28 26 26 25 26 24 24 27 29 24 24 25 13 15 19 20 20 18 21 22 23 20 17 15 15 14 12 11 12 13 15 13 13 15
17 12 14 15 16 10 10 21 19 23 22 23 26 27 28 27 27 26 25 25 25 26 28 24 24 12 22 21 19 21 21 20 19 21 23 24 21 21 19 18 16 15 14 15 16 16 15 17 19
13 17 18 17 16 17 28 26 19 17 13 21 26 25 27 27 27 24 22 23 22 22 23 22 24 17 13 23 23 21 22 21 22 24 25 25 23 23 20 19 17 16 17 17 17 17 16 18 18
16 17 18 18 17 19 23 20 18 17 16 21 25 25 27 26 25 23 23 22 21 20 21 18 24 20 12 23 27 23 23 21 20 20 23 26 24 22 20 21 18 16 16 18 18 17 16 17 15
13 15 18 15 15 15 13 15 19 17 15 22 26 25 25 27 24 24 23 22 21 20 20 22 27 29 32 30 28 26 22 20 22 20 20 24 23 19 17 17 16 12 11 15 12 13 14 19 16
11 12 13 13 17 17 15 11 17 19 17 19 21 22 25 25 24 22 23 20 20 18 21 26 29 30 33 32 29 26 23 22 23 22 19 17 22 17 15 14 14 12 11 12 11 12 13 9 6
10 13 16 13 13 13 16 10 16 14 17 21 17 20 24 24 23 22 22 20 19 19 22 26 26 30 33 31 31 28 28 26 24 26 22 16 12 15 17 14 13 13 12 12 11 11 10 11 23
7 12 14 12 9 10 12 16 16 17 18 15 20 20 23 20 21 22 23 20 18 22 24 24 27 29 33 27 29 26 28 28 26 28 24 18 14 15 15 14 13 14 15 13 10 10 9 7 22
8 15 12 16 11 8 15 21 17 18 20 21 17 19 21 22 19 20 21 18 18 21 24 26 26 30 34 31 26 30 31 29 27 27 25 18 18 17 19 16 17 18 16 13 10 9 8 9 14
14 15 9 13 11 9 10 17 9 15 19 18 18 21 22 20 18 18 20 20 21 21 25 24 27 29 30 32 29 25 26 29 29 26 23 14 16 18 21 15 18 20 17 16 11 10 10 10 13
24 21 10 14 12 10 17 19 10 8 2 15 16 17 17 18 20 19 21 21 22 21 23 26 28 29 30 31 13 21 17 19 23 23 22 22 19 20 20 18 17 20 16 17 15 12 7 10 14
26 5 6 12 11 16 6 18 19 16 11 10 19 18 18 22 21 20 21 20 23 24 20 24 26 28 32 33 31 25 24 30 31 29 25 24 24 20 19 19 16 21 18 15 13 14 9 10 9
17 9 5 10 9 16 17 20 20 17 17 4 15 15 18 22 23 20 20 25 22 19 21 23 24 28 32 35 34 31 31 30 23 19 26 25 21 25 22 18 18 22 20 20 15 15 12 12 12
4 6 14 14 12 21 19 14 20 20 21 22 18 23 17 15 17 18 14 16 18 13 15 23 23 26 32 34 34 34 31 32 30 30 30 29 10 22 25 24 20 21 16 20 23 16 11 13 19
6 6 12 14 14 19 13 20 19 20 21 22 26 22 18 10 8 10 12 11 11 15 13 19 24 26 28 32 33 34 33 33 31 29 30 30 28 23 26 23 19 21 12 16 9 14 12 13 14
10 6 10 14 16 17 17 21 19 18 20 21 21 21 8 8 8 10 17 12 18 16 12 21 22 27 29 33 35 35 34 33 30 29 30 30 31 30 25 29 28 25 23 7 13 18 16 12 11
9 10 9 12 17 19 21 20 18 18 21 22 21 18 20 22 16 16 27 21 19 17 20 26 21 22 30 33 36 35 36 34 33 32 30 31 31 31 30 28 27 26 25 17 18 11 9 14 15
11 6 10 15 16 19 20 21 21 20 24 23 23 23 23 24 28 33 11 15 17 16 14 17 20 22 30 33 38 38 37 36 35 32 32 30 30 30 31 31 30 31 6 16 14 11 12 14 11
13 10 13 12 13 15 20 21 19 21 21 23 23 24 24 25 28 31 35 15 17 21 12 21 15 18 16 22 24 40 40 38 36 35 34 33 31 30 31 32 32 32 29 21 19 23 20 6 4
13 11 10 12 17 17 19 23 19 16 21 24 25 24 24 27 27 29 27 17 15 14 20 12 20 12 15 12 10 13 14 27 38 34 36 32 32 32 31 31 25 5 7 16 28 28 11 10 2
Wind_Direction
193 240 274 185 133 112 112 124 116 105 95 165 119 102 88 327 237 19 121 100 96 103 104 123 242 339 12 30 250 54 18 272 313 328 277 300 312 23 45 34 36 27 31 38 37 36 38 37 42
250 268 327 49 107 67 115 106 107 106 116 93 87 95 13 347 244 72 88 106 98 96 115 125 144 148 235 35 243 29 360 303 329 267 233 217 249 32 39 29 36 21 24 36 24 41 189 41 44
304 298 318 298 289 73 105 107 82 92 95 104 89 8 272 40 73 96 105 102 93 89 123 126 132 139 137 150 218 213 220 190 200 209 210 218 208 310 47 69 31 37 35 37 35 38 186 27 179
326 340 351 297 3 284 73 114 98 87 109 93 80 40 174 151 96 115 100 100 95 104 126 128 130 135 131 186 53 44 213 191 196 197 211 223 213 213 40 17 58 42 47 26 197 185 190 182 182
315 328 293 290 308 288 268 102 119 93 96 91 83 98 106 102 72 96 108 106 106 112 130 132 129 138 138 140 179 204 183 167 179 201 191 178 182 213 233 231 248 203 204 197 190 181 185 190 183
325 317 284 253 262 229 180 175 132 90 96 73 80 84 150 102 98 107 110 104 108 110 126 143 135 131 140 143 160 149 154 165 182 189 205 207 207 220 207 210 200 196 195 189 181 181 190 192 186
10 317 339 288 263 249 266 192 115 64 86 84 96 77 118 103 99 111 100 104 113 117 112 125 146 144 145 150 156 166 169 173 176 194 200 202 204 225 203 204 202 195 188 184 184 185 187 191 193
53 335 324 9 320 215 209 339 114 62 85 87 102 97 118 127 103 100 104 110 116 115 117 111 153 154 153 160 170 185 185 186 188 179 182 207 229 219 205 202 206 195 186 196 194 193 197 195 190
47 352 2 29 235 204 219 173 94 69 96 114 130 106 119 123 110 106 110 114 121 118 121 118 107 201 199 195 188 189 192 192 185 182 182 238 224 217 212 203 204 192 199 206 202 198 198 196 204
56 323 105 106 240 124 195 228 213 120 127 97 67 89 114 124 120 118 116 123 124 122 130 133 120 180 199 206 216 206 201 193 192 188 196 197 220 216 206 202 214 222 205 204 198 204 204 212 208
66 48 59 108 113 69 217 220 218 134 140 121 115 115 123 127 125 127 124 128 127 130 146 156 129 128 185 229 222 206 198 198 205 190 180 172 180 197 199 197 196 207 210 210 207 206 216 219 203
13 185 140 82 103 65 228 230 221 146 141 132 124 123 126 132 131 130 125 128 129 135 142 134 135 107 209 209 214 203 201 203 206 198 186 182 189 185 191 194 202 208 214 215 213 214 221 207 195
97 104 126 94 81 124 159 188 197 124 96 121 124 125 134 134 137 136 130 129 126 129 131 133 139 123 237 208 205 208 203 207 201 198 188 186 188 186 193 202 210 218 218 217 217 220 218 203 202
38 25 66 73 68 85 121 194 210 107 93 125 131 134 139 140 140 135 140 140 133 127 133 128 142 164 240 215 204 216 210 213 210 208 199 187 191 202 211 196 210 225 225 215 215 224 223 211 216
35 40 70 42 66 75 65 125 147 135 114 133 141 138 142 150 142 147 147 144 139 137 134 142 154 184 179 198 204 215 219 220 211 217 215 199 202 214 223 222 221 242 250 229 249 245 250 223 221
339 1 2 42 103 126 103 56 151 138 127 133 140 140 145 150 150 149 153 143 140 135 144 155 165 177 181 190 200 216 220 221 215 218 224 225 210 229 234 243 241 257 265 256 271 262 262 287 26
327 351 316 1 112 62 123 351 122 120 143 146 134 142 146 147 152 153 154 146 143 142 147 159 163 167 176 202 200 208 211 212 215 204 217 237 254 244 230 248 254 266 267 262 270 280 284 254 163
342 323 333 1 57 82 124 155 119 114 137 144 152 146 151 145 149 153 152 145 138 148 152 153 163 165 180 213 212 217 209 209 214 200 218 240 249 250 250 255 264 259 252 263 279 290 302 58 171
329 324 330 321 13 49 134 166 138 137 143 147 150 153 155 157 145 145 147 137 136 143 151 160 163 172 181 181 222 208 200 211 211 209 223 244 244 251 241 258 258 245 252 264 294 307 317 315 273
315 317 334 332 7 353 338 165 123 149 162 154 151 159 163 155 146 145 149 147 146 144 158 157 159 159 167 168 210 224 226 215 207 218 229 255 251 250 239 266 257 245 250 255 289 297 288 301 286
258 264 308 307 341 331 309 297 321 312 88 156 156 158 159 161 157 152 152 153 155 152 156 161 163 166 166 162 146 235 244 239 233 235 238 236 252 253 250 261 262 247 267 266 277 289 327 310 294
264 49 103 330 312 305 10 299 286 296 159 165 171 167 166 168 165 161 159 156 160 163 151 157 164 166 173 175 166 228 233 202 198 192 234 242 240 250 254 250 266 242 259 267 288 274 308 314 332
305 118 94 328 329 302 306 296 290 318 310 167 184 181 174 174 171 169 166 169 163 157 158 158 160 170 174 177 177 179 204 216 242 253 173 239 257 241 249 261 260 239 244 252 277 276 291 296 311
7 321 301 311 314 293 304 321 303 301 298 297 188 189 179 178 180 174 177 169 162 156 158 163 163 168 177 182 184 189 188 197 205 203 209 218 285 252 245 249 263 259 279 240 246 275 304 294 264
309 326 313 310 308 305 321 307 308 309 305 301 268 190 184 183 222 226 194 195 176 163 162 162 166 170 171 182 185 189 195 199 196 188 199 209 229 255 248 256 269 265 293 272 297 286 303 301 300
286 296 313 311 312 312 323 311 306 315 308 309 308 286 298 265 205 213 241 221 175 170 172 166 169 177 177 184 192 193 199 199 193 191 197 210 214 225 252 228 239 252 255 121 288 279 290 316 319
328 309 339 336 321 311 312 310 312 311 306 303 308 304 286 277 272 184 245 242 243 179 175 177 172 173 184 188 196 194 201 205 204 210 217 213 218 219 225 238 240 249 254 279 279 302 319 310 306
329 26 330 326 321 313 315 306 304 305 298 302 303 297 287 276 260 241 221 206 236 239 188 177 177 178 186 191 202 203 200 205 209 222 220 230 226 224 224 224 232 225 190 287 293 304 310 307 314
338 343 336 341 338 328 318 316 309 307 308 298 300 297 289 288 273 255 243 228 223 249 209 181 184 180 178 177 192 206 215 213 217 227 220 224 234 230 230 220 226 215 204 276 286 277 287 319 334
346 358 349 332 316 320 320 319 322 324 311 295 292 301 298 298 283 263 253 238 224 196 250 225 251 212 188 188 207 197 243 248 216 201 231 242 240 239 246 241 262 270 168 285 248 214 181 177 196